Weather observations for the past three days for
Tinker Air Force Base
Imperial (Metric)
Date Time (cdt) Wind (mph) Vis. (mi.) Weather Sky Cond. Temperature (ºF) Relative Humidity Wind Chill (°F) Heat Index (°F) Pressure Precipitation (in)
Air Dwpt 6 hour altimeter (in) sea level (mb) 1 hr 3 hr 6 hr
Max. Min.
23 18:55 SE 10 10.00 Fair CLR 95.5 72 98.4 94.6 47% 104 29.83 1008.6
23 17:55 SE 9 10.00 Fair CLR 97 70.7 43% 105 29.84 1008.9
23 16:55 S 9 10.00 Fair CLR 97.7 70.7 42% 105 29.85 1009.2
23 15:55 S 9 10.00 Fair CLR 97.3 68.2 39% 103 29.87 1009.9
23 14:55 S 7 10.00 Fair CLR 96.6 67.5 39% 101 29.88 1010.2
23 13:55 S 8 10.00 A Few Clouds FEW190 95.7 69.6 43% 102 29.9 1010.9
23 12:55 Calm 10.00 Fair CLR 95.4 66.4 95.5 75.9 39% 99 29.91 1011.2
23 11:55 SW 3 10.00 Fair CLR 92.8 66.4 42% 96 29.92 1011.6
23 10:55 W 5 10.00 Fair CLR 90 66.9 47% 93 29.92 1011.6
23 09:55 W 9 10.00 Fair CLR 88 66.4 49% 91 29.92 1011.6
23 08:55 SW 12 10.00 Fair CLR 84.7 67.3 56% 88 29.92 1011.6
23 07:55 SW 9 10.00 Fair CLR 81 67.6 64% 84 29.92 1011.6
23 06:55 SW 9 10.00 Fair CLR 75.7 66.7 83.3 75.6 74% 77 29.91 1011.4
23 05:55 SW 7 10.00 Fair CLR 76.1 65.5 70% 78 29.9 1010.9
23 04:55 SW 10 10.00 Fair CLR 76.8 65.5 68% 79 29.9 1010.9
23 03:55 SW 12 10.00 Fair CLR 78.6 65.8 65% 81 29.89 1010.6
23 02:55 SW 10 10.00 Fair CLR 81 67.1 63% 83 29.9 1010.9
23 01:55 SW 16 10.00 Fair CLR 82 66.7 60% 84 29.9 1010.9
23 00:55 SW 13 10.00 Fair CLR 83.3 67.8 94.6 83.3 60% 86 29.9 1010.9
22 23:55 SW 13 10.00 Fair CLR 84 69.1 61% 88 29.91 1011.2
22 22:55 S 13 10.00 Fair CLR 84 69.4 62% 88 29.91 1011.3
22 21:55 S 13 10.00 Fair CLR 84.9 69.4 60% 89 29.89 1010.7
22 20:55 S 14 10.00 Fair CLR 86.4 69.3 57% 91 29.87 1010.0
22 19:55 S 13 6.00 Fair with Haze CLR 91.2 68.7 48% 96 29.88 1010.4
22 18:55 SW 15 4.00 Fair with Haze CLR 94.5 67.1 96.8 92.5 41% 98 29.88 1010.4
22 17:55 SW 15 7.00 A Few Clouds FEW065 95.7 66.7 39% 100 29.89 1010.7
22 16:55 SW 14 10.00 Fair CLR 95.9 66.9 39% 100 29.91 1011.3
22 15:55 SW 17 10.00 Fair CLR 95.5 67.3 40% 100 29.91 1011.4
22 14:55 SW 15 G 21 10.00 Partly Cloudy SCT055 SCT190 95.2 68.4 42% 100 29.93 1012.0
22 13:55 SW 23 G 25 10.00 A Few Clouds and Breezy FEW190 93.7 68.4 44% 99 29.95 1012.7
22 12:55 SW 20 G 24 10.00 A Few Clouds FEW043 92.3 69.6 92.7 73.4 48% 98 29.97 1013.3
22 11:55 SW 16 G 25 10.00 Fair CLR 90.5 70.3 52% 96 29.99 1014.0
22 10:55 SW 18 10.00 Fair CLR 87.6 70 56% 93 29.99 1014.1
22 09:55 SW 21 G 25 10.00 Fair and Breezy CLR 85.3 69.8 60% 90 30.01 1014.9
22 08:55 SW 17 10.00 Fair CLR 81.9 69.3 66% 85 30.02 1015.2
22 07:55 SW 16 10.00 Fair CLR 78.1 68.2 72% 80 30.02 1015.2
22 06:55 S 12 10.00 Fair CLR 73.4 67.1 78.8 72 81% 30.01 1015.0
22 05:55 S 8 10.00 Fair CLR 72.3 66.7 83% 30.02 1015.3
22 04:55 S 10 10.00 Fair CLR 73.6 66.6 79% 30.02 1015.2
22 03:55 S 9 10.00 Fair CLR 74.1 66.4 77% 30.02 1015.2
22 02:55 S 10 10.00 Fair CLR 76.3 66.2 71% 78 30.02 1015.2
22 01:55 S 10 10.00 Fair CLR 77.9 65.7 66% 80 30.02 1015.2
22 00:55 S 13 10.00 Fair CLR 79 67.1 88.9 78.4 67% 81 30.03 1015.5
21 23:55 S 12 10.00 Fair CLR 79.2 68.9 71% 82 30.04 1015.9
21 22:55 S 8 10.00 Fair CLR 79.3 69.8 73% 82 30.04 1015.9
21 21:55 S 8 10.00 Fair CLR 80.1 69.8 71% 83 30.02 1015.3
21 20:55 S 6 10.00 Fair CLR 82 70 67% 86 30 1014.6
21 19:55 S 8 10.00 Fair CLR 86.2 69.6 58% 91 30.01 1014.9
21 18:55 S 10 10.00 Fair CLR 88.9 67.8 93 87.1 50% 93 30.02 1015.2
21 17:55 S 13 G 17 10.00 Fair CLR 90.3 68.5 49% 95 30.04 1015.9
21 16:55 S 12 10.00 Fair CLR 91.9 68.2 46% 96 30.05 1016.2
21 15:55 S 12 10.00 Fair CLR 92.1 66.9 44% 96 30.07 1016.8
21 14:55 S 9 G 17 10.00 Fair CLR 89.2 69.3 52% 94 30.1 1017.9
21 13:55 S 8 10.00 A Few Clouds FEW042 FEW050 87.4 68.7 54% 91 30.12 1018.6
21 12:55 S 7 10.00 A Few Clouds FEW036 88 69.3 88 73.9 54% 93 30.14 1019.3
21 11:55 SW 13 10.00 Partly Cloudy FEW033 FEW043 FEW160 SCT200 86.2 70.2 59% 91 30.16 1020.0
21 10:55 S 12 10.00 A Few Clouds FEW170 84.4 69.8 62% 89 30.17 1020.3
21 09:55 S 12 10.00 A Few Clouds FEW190 81.7 69.6 67% 85 30.17 1020.4
21 08:55 S 12 10.00 Fair CLR 79.3 70.3 74% 82 30.17 1020.4
21 07:55 S 8 10.00 A Few Clouds FEW220 77.2 70.9 81% 79 30.16 1020.1
21 06:55 S 7 10.00 Partly Cloudy SCT230 74.1 70.3 76.5 73.8 88% 30.16 1020.2
21 05:55 S 6 10.00 Mostly Cloudy FEW180 BKN230 74.8 70.7 87% 30.15 1019.7
21 04:55 S 6 10.00 Fair CLR 75.2 71.1 87% 75 30.14 1019.4
21 03:55 S 6 10.00 A Few Clouds FEW180 75.7 70.9 85% 76 30.14 1019.4
21 02:55 S 8 10.00 Fair CLR 74.5 69.6 85% 30.13 1019.0
21 01:55 SE 5 10.00 A Few Clouds FEW240 75.7 70.2 83% 76 30.15 1019.7
21 00:55 S 5 10.00 Fair CLR 76.3 70 85.5 76.1 81% 77 30.15 1019.7
20 23:55 S 7 10.00 A Few Clouds FEW240 77.9 70.9 79% 80 30.13 1019.0
20 22:55 S 6 10.00 A Few Clouds FEW220 78.6 70 75% 81 30.13 1019.1
20 21:55 S 5 10.00 Partly Cloudy SCT210 80.1 71.4 75% 84 30.12 1018.7
20 20:55 SE 5 10.00 Partly Cloudy SCT220 80.6 71.4 74% 85 30.11 1018.4
20 19:55 SE 6 10.00 Fair CLR 83.7 71.4 67% 89 30.1 1018.0
Date Time (cdt) Wind (mph) Vis. (mi.) Weather Sky Cond. Air Dwpt Max. Min. Relative Humidity Wind Chill (°F) Heat Index (°F) altimeter (in) sea level (mb) 1 hr 3 hr 6 hr
6 hour
Temperature (ºF) Pressure Precipitation (in)